Probability
0 0 0 0 0 0 0 0 0 0 0 0 0 0 0 0 0 0 0 0 0 0 0 0 0 0 0 0 0 0 0 0 0 0 0 0 0 0 0 0 0 0 0
0 0 0 0 0 0 0 0 0 0 0 0 0 0 0 0 0 0 0 0 0 0 0 0 0 0 0 0 0 0 0 0 0 0 0 0 0 0 0 0 0 0 0
0 0 0 0 0 0 0 0 0 0 0 0 0 0 0 0 0 0 0 0 0 0 0 0 0 0 0 0 0 0 0 0 0 0 0 0 0 0 0 0 0 0 0
0 0 0 0 0 0 0 0 0 0 0 0 0 0 0 0 0 0 0 0 0 0 0 0 0 0 0 0 0 0 0 0 0 0 0 0 0 0 0 0 0 0 0
0 0 0 0 0 0 0 0 0 0 0 0 0 0 0 0 0 0 0 0 0 0 0 0 0 0 0 0 0 0 0 0 0 0 0 0 0 0 0 0 0 0 0
0 0 0 0 0 0 0 0 0 0 0 0 0 0 0 0 0 0 0 0 0 0 0 0 0 0 0 0 0 0 0 0 0 0 0 0 0 0 0 0 0 0 0
0 0 0 0 0 0 0 0 0 0 0 0 0 0 0 0 0 0 0 0 0 0 0 0 0 0 0 0 0 0 0 0 0 0 0 0 0 0 0 0 0 0 0
0 0 0 0 0 0 0 0 0 0 0 0 0 0 0 0 0 0 0 0 0 0 0 0 0 0 0 0 0 0 0 0 0 0 0 0 0 0 0 0 0 0 0
0 0 0 0 0 0 0 0 0 0 0 0 0 0 0 0 0 0 0 0 0 0 0 0 0 0 0 0 0 0 0 0 0 0 0 0 0 0 0 0 0 0 0
0 0 0 0 0 0 0 0 0 0 0 0 0 0 0 0 0 0 0 0 0 0 0 0 0 0 0 0 0 0 0 0 0 0 0 0 0 0 0 0 0 0 0
0 0 0 0 0 0 0 0 0 0 0 0 0 0 0 0 0 0 0 0 0 0 0 0 0 0 0 0 0 0 0 0 0 0 0 0 0 0 0 0 0 0 0
0 0 0 0 0 0 0 0 0 0 0 0 0 0 0 0 0 0 0 0 0 0 0 0 0 0 0 0 0 0 0 0 0 0 0 0 0 0 0 0 0 0 0
0 0 0 0 0 0 0 0 0 0 0 0 0 0 0 0 0 0 0 0 0 0 0 0 0 0 0 0 0 0 0 0 0 0 0 0 0 0 0 0 0 0 0
0 0 0 0 0 0 0 0 0 0 0 0 0 0 0 0 0 0 0 0 0 0 0 0 0 0 0 0 0 0 0 0 0 0 0 0 0 0 0 0 0 0 0
0 0 0 0 0 0 0 0 0 0 0 0 0 0 0 0 0 0 0 0 0 0 0 0 0 0 0 0 0 0 0 0 0 0 0 0 0 0 0 0 0 0 0
0 0 0 0 0 0 0 0 0 0 0 0 0 0 0 0 0 0 0 0 0 0 0 0 0 0 0 0 0 0 0 0 0 0 0 0 0 0 0 0 0 0 0
0 0 0 0 0 0 0 0 0 0 0 0 0 0 0 0 0 0 0 0 0 0 0 0 0 0 0 0 0 0 0 0 0 0 0 0 0 0 0 0 0 0 0
0 0 0 0 0 0 0 0 0 0 0 0 0 0 0 0 0 0 0 0 0 0 0 0 0 0 0 0 0 0 0 0 0 0 0 0 0 0 0 0 0 0 0
0 0 0 0 0 0 0 0 0 0 0 0 0 0 0 0 0 0 0 0 0 0 0 0 0 0 0 0 0 0 0 0 0 0 0 0 0 0 0 0 0 0 0
0 0 0 0 0 0 0 0 0 0 0 0 0 0 0 0 0 0 0 0 0 0 0 0 0 0 0 0 0 0 0 0 0 0 0 0 0 0 0 0 0 0 0
0 0 0 0 0 0 0 0 0 0 0 0 0 0 0 0 0 0 0 0 0 0 0 0 0 0 0 0 0 0 0 0 0 0 0 0 0 0 0 0 0 0 0
0 0 0 0 0 0 0 0 0 0 0 0 0 0 0 0 0 0 0 0 0 0 0 0 0 0 0 0 0 0 0 0 0 0 0 0 0 0 0 0 0 0 0
0 0 0 0 0 0 0 0 0 0 0 0 0 0 0 0 0 0 0 0 0 0 0 0 0 0 0 0 0 0 0 0 0 0 0 0 0 0 0 0 0 0 0
0 0 0 0 0 0 0 0 0 0 0 0 0 0 0 0 0 0 0 0 0 0 0 0 0 0 0 0 0 0 0 0 0 0 0 0 0 0 0 0 0 0 0
0 0 0 0 0 0 0 0 0 0 0 0 0 0 0 0 0 0 0 0 0 0 0 0 0 0 0 0 0 0 0 0 0 0 0 0 0 0 0 0 0 0 0
0 0 0 0 0 0 0 0 0 0 0 0 0 0 0 0 0 0 0 0 0 0 0 0 0 0 0 0 0 0 0 0 0 0 0 0 0 0 0 0 0 0 0
Wind_Speed
6 10 15 15 15 14 13 13 12 12 11 11 10 9 9 8 8 8 8 9 10 12 13 12 11 11 11 11 10 9 9 9 9 9 9 10 11 11 12 11 9 7 11
9 13 16 15 15 14 13 13 12 11 11 11 10 9 8 7 7 6 7 8 10 12 11 10 9 9 9 9 8 8 8 8 8 8 7 7 9 11 11 10 8 7 11
10 13 15 15 15 14 13 13 13 12 12 11 10 9 8 7 6 6 6 8 11 10 9 8 8 8 8 7 7 7 7 8 9 7 3 2 5 10 10 9 9 10 11
12 12 13 14 15 15 15 14 14 13 13 12 10 9 8 8 7 6 7 9 10 9 8 7 7 7 6 6 6 6 6 7 8 6 2 1 2 8 9 9 9 9 9
9 10 12 15 15 15 15 15 15 14 13 12 12 11 10 9 7 8 9 10 9 8 7 7 6 5 5 5 5 5 6 7 8 6 5 3 2 6 8 8 8 8 8
8 8 11 17 17 16 15 15 15 14 13 13 12 12 12 11 10 10 10 9 8 7 6 6 6 5 4 5 5 6 8 9 8 5 5 4 4 6 8 8 7 6 6
7 7 9 15 16 16 16 16 15 14 13 12 12 13 13 12 11 10 10 9 8 6 5 5 5 4 4 4 5 7 9 9 6 5 5 5 5 8 8 7 6 6 7
7 7 8 14 14 14 15 16 16 15 14 13 13 13 13 13 12 11 10 10 8 7 7 6 5 4 4 4 5 7 10 8 7 6 5 5 5 6 6 6 6 5 5
5 6 6 9 11 13 14 14 14 14 14 13 12 12 13 13 11 10 9 10 9 8 7 7 6 5 4 4 5 7 10 10 6 4 4 4 4 4 4 4 4 4 4
4 5 7 7 7 8 9 13 13 13 12 12 11 11 13 13 12 10 9 9 10 9 9 8 7 6 4 3 4 6 8 8 5 4 3 3 5 3 3 2 1 1 1
3 4 6 7 7 7 6 8 10 11 12 12 10 11 11 7 7 7 9 10 11 10 10 10 8 7 5 3 3 6 6 3 3 2 2 3 4 1 1 1 1 1 2
6 6 6 8 9 8 7 5 5 5 6 6 5 7 6 5 5 6 8 10 10 10 11 11 10 7 4 1 2 4 2 3 2 2 1 3 2 1 2 2 2 3 3
6 5 5 6 7 8 6 5 4 3 3 4 5 6 5 5 4 4 3 4 5 6 5 6 6 3 2 1 0 1 2 2 1 1 1 1 2 3 4 4 5 4 3
6 6 6 5 5 6 6 5 5 4 4 4 4 6 5 4 4 4 3 3 3 2 3 3 3 3 2 3 3 2 2 2 2 1 1 1 2 4 5 6 6 6 6
9 9 7 4 5 5 5 4 5 5 5 5 5 6 6 5 5 4 3 3 3 3 3 3 3 3 3 3 3 4 4 4 3 2 1 1 1 3 6 7 7 7 7
12 11 9 5 4 4 4 4 4 4 5 5 6 8 8 6 6 6 5 4 4 3 3 3 4 3 2 2 3 3 3 3 3 3 2 1 3 3 3 6 7 8 8
11 11 11 8 3 1 3 3 2 3 3 4 5 7 8 7 7 7 6 6 5 4 4 3 2 1 1 2 2 2 2 2 3 3 3 1 1 4 3 1 4 8 10
11 11 12 10 9 5 3 3 2 1 1 2 3 4 6 6 6 6 5 6 6 6 5 4 3 2 2 2 2 2 1 2 3 3 3 2 1 1 3 3 3 3 8
10 10 11 12 12 9 8 7 6 5 5 3 2 0 2 4 5 5 5 4 6 5 5 5 3 3 3 2 2 2 2 2 3 3 3 3 3 2 1 2 3 4 4
9 10 12 13 13 9 7 7 7 9 8 7 7 6 5 2 2 3 3 4 4 4 4 4 3 3 2 3 1 2 3 4 3 3 4 3 3 4 3 3 2 3 4
12 13 14 14 13 9 6 5 5 6 6 7 8 11 10 7 5 3 2 3 3 4 5 6 3 3 2 2 2 2 3 4 5 4 4 4 4 4 4 4 3 3 3
13 13 14 14 13 11 6 4 3 4 5 5 7 10 12 11 8 5 4 2 0 1 2 4 3 3 2 3 4 1 3 5 5 5 4 5 5 4 5 5 5 5 4
14 13 12 13 14 13 11 6 5 6 5 7 9 9 11 12 12 10 7 4 2 1 2 3 4 5 4 4 3 4 4 5 4 3 5 5 5 4 4 4 6 6 5
11 10 12 13 14 13 12 11 12 9 7 6 5 6 9 12 13 12 10 8 5 3 2 2 3 3 3 4 4 3 3 2 2 5 3 3 5 7 6 6 6 6 6
9 9 10 12 14 13 13 12 11 10 7 5 6 10 10 10 11 12 11 9 8 5 5 4 3 4 4 5 5 4 4 3 3 3 5 4 4 6 7 7 6 6 7
8 8 9 11 12 11 12 12 12 12 10 11 11 10 8 7 9 13 11 9 8 7 6 5 4 4 4 6 5 5 5 4 4 5 7 5 5 5 5 5 7 8 7
Wind_Direction
195 174 179 174 170 165 161 157 152 147 143 140 136 132 126 119 113 110 118 127 125 115 102 92 85 79 76 72 68 66 63 53 44 51 72 80 78 84 85 72 65 62 72
166 170 174 175 173 168 163 160 156 153 151 149 147 143 138 132 125 118 117 126 121 111 102 97 92 89 85 77 67 58 51 43 33 28 39 68 82 84 83 78 74 73 71
155 169 172 174 174 171 166 162 160 160 158 157 156 155 152 149 147 143 134 130 121 113 108 103 98 95 91 84 72 57 46 35 22 11 22 69 95 99 95 88 83 78 73
157 166 173 176 175 174 170 168 167 167 166 165 166 168 166 161 157 156 149 137 126 118 114 108 101 95 88 79 67 56 48 37 26 24 50 119 118 120 110 101 91 85 80
154 163 172 173 177 178 176 174 173 174 174 174 175 175 171 163 155 149 144 135 127 122 119 116 109 97 82 70 60 53 45 38 55 58 60 59 60 132 120 106 99 93 87
160 165 173 174 177 179 179 180 180 181 182 183 182 179 174 164 155 149 143 136 129 126 128 127 118 102 81 67 60 54 44 54 72 65 55 45 47 97 112 113 114 110 102
167 171 175 177 180 181 182 183 184 187 190 191 190 187 181 169 162 158 154 149 146 148 152 143 127 109 88 72 65 55 45 62 81 65 51 36 56 78 83 94 102 112 108
166 176 176 181 182 184 186 187 187 189 191 194 197 195 187 173 172 172 171 169 169 174 173 160 144 125 101 78 66 54 49 66 83 71 51 31 53 80 74 70 71 82 93
168 170 181 186 188 188 188 190 191 192 193 195 199 199 183 171 175 177 178 178 180 185 181 166 156 145 126 93 72 56 55 77 83 70 56 27 39 94 87 70 65 68 77
176 177 182 188 192 195 196 196 194 195 196 198 202 198 177 170 170 173 176 180 183 187 182 169 164 161 142 111 80 57 68 81 82 72 50 24 38 94 101 83 62 59 80
230 208 188 190 193 194 198 204 203 202 201 199 203 194 174 167 164 170 179 182 183 184 179 173 173 164 141 121 79 56 67 76 88 72 45 33 39 60 135 154 210 231 224
253 236 211 197 194 192 197 196 199 202 205 200 187 179 169 159 164 171 187 187 184 180 179 178 175 152 132 91 30 47 55 87 86 71 24 38 19 304 208 197 221 221 209
285 282 247 217 200 193 196 191 189 189 189 191 183 170 162 160 162 167 170 185 185 175 172 172 155 139 148 164 93 68 88 100 111 75 349 3 323 276 222 208 212 205 201
337 322 298 257 221 205 196 193 188 188 190 191 180 172 167 167 169 169 174 178 172 161 160 144 141 160 182 199 189 166 142 139 153 157 272 268 284 267 234 214 204 203 210
358 344 325 283 237 214 197 192 188 192 194 190 175 180 180 172 172 170 175 177 175 161 160 158 163 178 195 196 188 173 163 162 170 180 245 295 302 273 240 217 208 208 208
354 344 336 319 263 217 200 194 187 186 186 182 184 187 187 179 171 173 173 176 177 173 167 167 175 186 207 212 204 187 178 171 172 176 189 333 11 356 264 222 221 215 206
350 347 350 348 348 208 196 189 168 169 173 184 189 188 188 183 175 174 176 178 178 165 155 151 162 161 214 238 229 211 196 195 183 181 190 205 334 3 10 275 243 227 214
357 359 1 8 18 38 79 96 84 101 157 185 183 186 187 182 172 168 174 182 171 159 157 161 161 172 223 247 256 257 236 218 207 195 190 193 207 322 355 9 352 275 228
3 5 13 19 23 32 52 64 61 50 35 21 22 334 194 174 168 168 176 172 162 162 164 165 161 166 192 222 254 278 277 252 233 218 204 195 197 202 243 311 335 330 271
13 19 23 24 23 27 43 54 56 51 42 35 28 16 16 49 124 140 143 145 147 151 161 170 167 166 168 172 195 286 290 278 263 240 220 206 204 204 212 240 280 298 287
28 30 27 27 19 22 29 36 45 46 37 39 35 31 29 30 37 53 76 128 153 174 186 181 153 170 170 132 112 315 304 280 264 249 233 221 214 208 208 221 237 256 275
33 30 32 29 24 22 22 30 53 66 46 39 35 32 27 26 27 32 37 36 158 184 173 175 166 162 180 164 149 149 290 299 263 239 232 227 222 211 213 215 222 234 245
36 31 33 32 31 26 24 31 37 42 38 30 25 25 23 24 23 21 23 26 15 326 237 217 201 186 202 207 187 168 198 250 295 282 244 234 224 220 220 218 221 227 230
34 31 36 37 38 32 32 43 53 55 51 29 20 25 27 31 28 22 18 15 12 357 314 270 234 231 214 220 226 225 210 210 256 304 297 259 236 231 223 218 219 222 221
37 37 38 43 43 38 40 44 52 54 49 38 35 34 30 26 26 22 20 18 13 3 345 322 290 251 234 233 223 222 223 213 191 225 282 293 273 243 228 220 216 219 216
41 41 41 48 45 39 43 45 50 51 46 44 37 33 28 23 21 19 16 16 13 9 357 340 318 292 269 256 252 238 232 228 216 212 245 253 257 262 238 222 221 222 215